• Em Portugal
  • Lista de países
  • Para 7 dias
  • Temperatura da água
  • Mapas de satélite
  • Mapa do tempo
  • Widgets de tempo
  • user-avatar
    Iniciar Sessão

    Previsão horária em Juwaja

    Hoje, 15 Agosto, Quarta-feira

    Tempo Temperatura Precipitação Vento Pressão Humidade
    00:00 +26°C° 0 mm 2 m/s 732 mmHg 81%
    01:00 +26°C° 0 mm 2 m/s 732 mmHg 82%
    02:00 +25°C° 0 mm 2 m/s 731 mmHg 83%
    03:00 +25°C° 0 mm 2 m/s 731 mmHg 82%
    04:00 +25°C° 0 mm 2 m/s 731 mmHg 82%
    05:00 +25°C° 0 mm 2 m/s 732 mmHg 81%
    06:00 +26°C° 0 mm 2 m/s 732 mmHg 73%
    07:00 +28°C° 0 mm 3 m/s 732 mmHg 65%
    08:00 +29°C° 0 mm 3 m/s 732 mmHg 56%
    09:00 +31°C° 0 mm 3 m/s 732 mmHg 50%
    10:00 +33°C° 0 mm 3 m/s 732 mmHg 45%
    11:00 +35°C° 0 mm 4 m/s 732 mmHg 39%
    12:00 +35°C° 0 mm 4 m/s 732 mmHg 39%
    13:00 +36°C° 0 mm 4 m/s 732 mmHg 39%
    14:00 +36°C° 0 mm 4 m/s 732 mmHg 40%
    15:00 +35°C° 0 mm 4 m/s 732 mmHg 44%
    16:00 +34°C° 0 mm 4 m/s 732 mmHg 49%
    17:00 +33°C° 0 mm 4 m/s 732 mmHg 53%
    18:00 +31°C° 0 mm 3 m/s 732 mmHg 61%
    19:00 +30°C° 0 mm 3 m/s 732 mmHg 68%
    20:00 +29°C° 0 mm 2 m/s 732 mmHg 75%
    21:00 +28°C° 0 mm 2 m/s 732 mmHg 78%
    22:00 +28°C° 0 mm 1 m/s 732 mmHg 80%
    23:00 +27°C° 0 mm 1 m/s 732 mmHg 83%

    Amanhã, 16 Agosto, Quinta-feira

    Tempo Temperatura Precipitação Vento Pressão Humidade
    00:00 +27°C° 0 mm 1 m/s 732 mmHg 84%
    01:00 +26°C° 0 mm 1 m/s 732 mmHg 85%
    02:00 +26°C° 0 mm 1 m/s 732 mmHg 87%
    03:00 +25°C° 0 mm 1 m/s 732 mmHg 87%
    04:00 +25°C° 0 mm 1 m/s 732 mmHg 87%
    05:00 +25°C° 0 mm 1 m/s 732 mmHg 88%
    06:00 +26°C° 0 mm 1 m/s 732 mmHg 77%
    07:00 +28°C° 0 mm 2 m/s 733 mmHg 66%
    08:00 +30°C° 0 mm 2 m/s 733 mmHg 55%
    09:00 +31°C° 0 mm 3 m/s 733 mmHg 48%
    10:00 +34°C° 0 mm 3 m/s 733 mmHg 40%
    11:00 +36°C° 0 mm 4 m/s 734 mmHg 32%
    12:00 +36°C° 0 mm 4 m/s 733 mmHg 33%
    13:00 +36°C° 0 mm 4 m/s 733 mmHg 34%
    14:00 +36°C° 0 mm 4 m/s 733 mmHg 35%
    15:00 +36°C° 0 mm 4 m/s 733 mmHg 39%
    16:00 +35°C° 0 mm 4 m/s 732 mmHg 43%
    17:00 +34°C° 0 mm 3 m/s 732 mmHg 47%
    18:00 +31°C° 0 mm 3 m/s 732 mmHg 54%
    19:00 +30°C° 0 mm 2 m/s 733 mmHg 61%
    20:00 +29°C° 0 mm 2 m/s 733 mmHg 67%
    21:00 +28°C° 0 mm 2 m/s 733 mmHg 70%
    22:00 +28°C° 0 mm 1 m/s 733 mmHg 73%
    23:00 +27°C° 0 mm 1 m/s 733 mmHg 76%

    Depois de amanhã, 17 Agosto, Sexta-feira

    Tempo Temperatura Precipitação Vento Pressão Humidade
    00:00 +26°C° 0 mm 1 m/s 733 mmHg 77%
    01:00 +26°C° 0 mm 2 m/s 733 mmHg 78%
    02:00 +26°C° 0 mm 2 m/s 733 mmHg 79%
    03:00 +25°C° 0 mm 2 m/s 733 mmHg 80%
    04:00 +25°C° 0 mm 2 m/s 733 mmHg 80%
    05:00 +25°C° 0 mm 2 m/s 733 mmHg 81%
    06:00 +26°C° 0 mm 2 m/s 733 mmHg 72%
    07:00 +28°C° 0 mm 2 m/s 733 mmHg 64%
    08:00 +30°C° 0 mm 3 m/s 734 mmHg 56%
    09:00 +31°C° 0 mm 3 m/s 734 mmHg 50%
    10:00 +34°C° 0 mm 4 m/s 734 mmHg 43%
    11:00 +36°C° 0 mm 4 m/s 734 mmHg 37%
    12:00 +36°C° 0 mm 4 m/s 733 mmHg 38%
    13:00 +36°C° 0 mm 4 m/s 733 mmHg 38%
    14:00 +36°C° 0 mm 4 m/s 733 mmHg 39%
    15:00 +35°C° 0 mm 4 m/s 733 mmHg 42%
    16:00 +34°C° 0 mm 4 m/s 732 mmHg 45%
    17:00 +33°C° 0 mm 4 m/s 732 mmHg 47%
    18:00 +31°C° 0 mm 3 m/s 732 mmHg 55%
    19:00 +30°C° 0 mm 3 m/s 733 mmHg 62%
    20:00 +28°C° 0 mm 2 m/s 733 mmHg 70%
    21:00 +28°C° 0 mm 2 m/s 733 mmHg 73%
    22:00 +27°C° 0 mm 2 m/s 732 mmHg 76%
    23:00 +26°C° 0 mm 2 m/s 732 mmHg 79%

    18 Agosto, Sábado

    Tempo Temperatura Precipitação Vento Pressão Humidade
    00:00 +26°C° 0 mm 2 m/s 732 mmHg 80%
    01:00 +26°C° 0 mm 2 m/s 732 mmHg 80%
    02:00 +26°C° 0 mm 2 m/s 732 mmHg 81%
    03:00 +25°C° 0 mm 2 m/s 732 mmHg 82%
    04:00 +25°C° 0 mm 2 m/s 732 mmHg 82%
    05:00 +25°C° 0 mm 2 m/s 732 mmHg 83%
    06:00 +26°C° 0 mm 2 m/s 732 mmHg 74%
    07:00 +28°C° 0 mm 3 m/s 732 mmHg 64%
    08:00 +29°C° 0 mm 3 m/s 733 mmHg 55%
    09:00 +32°C° 0 mm 4 m/s 732 mmHg 49%
    10:00 +33°C° 0 mm 4 m/s 732 mmHg 42%
    11:00 +35°C° 0 mm 5 m/s 732 mmHg 36%
    12:00 +35°C° 0 mm 5 m/s 732 mmHg 37%
    13:00 +35°C° 0 mm 5 m/s 731 mmHg 37%
    14:00 +35°C° 0 mm 5 m/s 731 mmHg 38%
    15:00 +34°C° 0 mm 5 m/s 731 mmHg 42%
    16:00 +33°C° 0 mm 4 m/s 731 mmHg 46%
    17:00 +33°C° 0 mm 4 m/s 731 mmHg 50%
    18:00 +30°C° 0 mm 4 m/s 731 mmHg 57%
    19:00 +29°C° 0 mm 3 m/s 731 mmHg 65%
    20:00 +28°C° 0 mm 3 m/s 731 mmHg 72%
    21:00 +27°C° 0 mm 3 m/s 731 mmHg 75%
    22:00 +27°C° 0 mm 3 m/s 731 mmHg 77%
    23:00 +26°C° 0 mm 3 m/s 731 mmHg 79%

    19 Agosto, Domingo

    Tempo Temperatura Precipitação Vento Pressão Humidade
    00:00 +26°C° 0 mm 3 m/s 731 mmHg 79%
    01:00 +26°C° 0 mm 3 m/s 731 mmHg 80%
    02:00 +25°C° 0 mm 3 m/s 731 mmHg 80%
    03:00 +25°C° 0 mm 3 m/s 731 mmHg 81%
    04:00 +25°C° 0 mm 3 m/s 731 mmHg 81%
    05:00 +25°C° 0 mm 3 m/s 731 mmHg 81%
    06:00 +26°C° 0 mm 3 m/s 731 mmHg 75%
    07:00 +27°C° 0 mm 3 m/s 731 mmHg 68%
    08:00 +29°C° 0 mm 4 m/s 732 mmHg 61%
    09:00 +30°C° 0 mm 4 m/s 731 mmHg 56%
    10:00 +32°C° 0 mm 4 m/s 731 mmHg 52%
    11:00 +34°C° 0 mm 5 m/s 731 mmHg 47%
    12:00 +34°C° 0 mm 5 m/s 731 mmHg 47%
    13:00 +35°C° 0 mm 5 m/s 731 mmHg 47%
    14:00 +35°C° 0 mm 5 m/s 731 mmHg 46%
    15:00 +34°C° 0 mm 4 m/s 730 mmHg 50%
    16:00 +34°C° 0 mm 4 m/s 730 mmHg 54%
    17:00 +33°C° 0 mm 4 m/s 730 mmHg 58%
    18:00 +31°C° 0 mm 3 m/s 731 mmHg 64%
    19:00 +29°C° 0 mm 3 m/s 731 mmHg 71%
    20:00 +28°C° 0 mm 2 m/s 731 mmHg 77%
    21:00 +28°C° 0 mm 2 m/s 731 mmHg 79%
    22:00 +27°C° 0 mm 2 m/s 731 mmHg 82%
    23:00 +27°C° 0 mm 2 m/s 731 mmHg 84%

    20 Agosto, Segunda-feira

    Tempo Temperatura Precipitação Vento Pressão Humidade
    00:00 +26°C° 0 mm 2 m/s 731 mmHg 84%
    01:00 +26°C° 0 mm 2 m/s 731 mmHg 85%
    02:00 +26°C° 0 mm 2 m/s 730 mmHg 85%
    03:00 +25°C° 0 mm 2 m/s 731 mmHg 85%
    04:00 +25°C° 0 mm 2 m/s 731 mmHg 85%
    05:00 +25°C° 0 mm 2 m/s 731 mmHg 84%
    06:00 +27°C° 0 mm 2 m/s 731 mmHg 76%
    07:00 +28°C° 0 mm 3 m/s 732 mmHg 69%
    08:00 +29°C° 0 mm 3 m/s 732 mmHg 61%
    09:00 +32°C° 0 mm 4 m/s 732 mmHg 55%
    10:00 +33°C° 0 mm 4 m/s 732 mmHg 49%
    11:00 +35°C° 0 mm 4 m/s 732 mmHg 43%
    12:00 +35°C° 0 mm 4 m/s 732 mmHg 44%
    13:00 +35°C° 0 mm 4 m/s 732 mmHg 45%
    14:00 +36°C° 0 mm 4 m/s 732 mmHg 46%
    15:00 +35°C° 0 mm 4 m/s 732 mmHg 50%
    16:00 +34°C° 0 mm 3 m/s 732 mmHg 53%
    17:00 +33°C° 0 mm 3 m/s 732 mmHg 56%
    18:00 +31°C° 0 mm 2 m/s 732 mmHg 62%
    19:00 +30°C° 0 mm 2 m/s 732 mmHg 68%
    20:00 +29°C° 0 mm 1 m/s 732 mmHg 73%
    21:00 +28°C° 0 mm 1 m/s 732 mmHg 76%
    22:00 +28°C° 0 mm 1 m/s 732 mmHg 79%
    23:00 +27°C° 0 mm 1 m/s 732 mmHg 82%
    Mostrar mais